Home > Weather > Winston-Salem > Past weeks

Flag for USA Past Weather in Winston-Salem, North Carolina, USA — Yesterday and Last 2 Weeks

Now
96 °F

Broken clouds.


Feels Like: 100 °F
Forecast: 73 / 96 °F
Wind: 8 mph from West

Location: Smith Reynolds Airport

Current Time: Jul 25, 2016 at 6:07:12 PM

Latest Report: Jul 25, 2016 at 4:54 PM


Visibility: 10 mi

Pressure: 29.93 "Hg

Humidity: 37%

Dew Point: 66 °F

Location of Winston-SalemLocation

Past Weather in Winston-Salem — Graph

°F

Winston-Salem Temperature Yesterday

Maximum temperature yesterday: 94 °F (at 3:54 PM)
Minimum temperature yesterday: 73 °F (at 6:54 AM)
Average temperature yesterday: 84 °F

High & Low Weather Summary for the Past Weeks

 TemperatureHumidityPressure
High96 °F (Jul 25, 3:54 PM)97% (Jul 17, 5:54 AM)30.24 "Hg (Jul 17, 5:54 AM)
Low69 °F (Jul 17, 4:54 AM)36% (Jul 25, 3:54 PM)29.93 "Hg (Jul 25, 4:54 PM)
Average81 °F68%30.07 "Hg
* Reported Jul 10 4:54 PM — Jul 25 4:54 PM, Winston-Salem, Weather by CustomWeather, © 2016

Note: Actual official high and low records may vary slightly from our data, if they occured in-between our weather recording intervals... More about our weather records

Advertising

Winston-Salem Weather History for the Previous 24 Hours

Scroll right to see more
 ConditionsComfort  
Time TempWeatherWind HumidityBarometerVisibility
4:54 PM
Mon, Jul 25
96 °FBroken clouds.8 mph37%29.93 "Hg10 mi
3:54 PM96 °FSunny.6 mph36%29.95 "Hg10 mi
2:54 PM95 °FPassing clouds.6 mph44%29.97 "Hg10 mi
1:54 PM93 °FScattered clouds.5 mph47%30.00 "Hg10 mi
12:54 PM93 °FScattered clouds.7 mph50%30.01 "Hg10 mi
11:54 AM90 °FSunny.7 mph56%30.02 "Hg10 mi
10:54 AM87 °FSunny.5 mph65%30.03 "Hg10 mi
9:54 AM85 °FSunny.5 mph68%30.04 "Hg10 mi
8:54 AM82 °FSunny.7 mph72%30.05 "Hg10 mi
7:54 AM79 °FSunny.No wind79%30.04 "Hg10 mi
6:54 AM74 °FClear.No wind91%30.03 "Hg10 mi
5:54 AM75 °FClear.No wind88%30.03 "Hg10 mi
4:54 AM77 °FClear.3 mph82%30.01 "Hg10 mi
3:54 AM76 °FClear.No wind85%30.01 "Hg10 mi
2:54 AM77 °FClear.No wind82%30.00 "Hg10 mi
1:54 AM81 °FClear.3 mph72%30.00 "Hg10 mi
12:54 AM80 °FClear.3 mph74%30.01 "Hg10 mi
11:54 PM
Sun, Jul 24
80 °FClear.No wind76%30.03 "Hg10 mi
10:54 PM83 °FClear.No wind70%30.03 "Hg10 mi
9:54 PM84 °FClear.No wind65%30.02 "Hg10 mi
8:54 PM87 °FSunny.No wind59%30.00 "Hg10 mi
7:54 PM90 °FSunny.3 mph54%29.98 "Hg10 mi
6:54 PM92 °FPassing clouds.5 mph47%29.98 "Hg10 mi
Weather by CustomWeather, © 2016

See weather overviewHow to use our weather pages